sat.trackr.live / text

‹ back to catalog

2025-313V

NORAD 67267 · 2025-313V

PAYLOAD ACTIVE UNKNOWN

§ Identity

Operator
Country
TBD
Launch date
2025-12-28
Launch site
VOSTO
Launch vehicle
Mass (kg)
RCS (m²)

External: N2YO · Heavens-Above · Gunter

§ Orbital elements

Epoch: 2026-05-25T03:54:05.768928Z

Period
94.52 min
Inclination
97.3941°
Eccentricity
0.0015352
Mean motion
15.23463686 rev/d
Perigee alt
484.9 km
Apogee alt
506.0 km
Semi-major
6,873.5 km
B*
4.5179e-4
RAAN
220.2638°
Arg perigee
92.2685°
Mean anomaly
268.0310°
Rev number
2,245

§ Raw data

2025-313V1 67267U 25313V   26145.16256677  .00010741  00000+0  45179-3 0  99912 67267  97.3941 220.2638 0015352  92.2685 268.0310 15.23463686 22451

JSON: /api/v1/satellites/67267 · /tle

For live sub-satellite position, see the globe view (requires WebGL).

§ Visibility from observer

Set your observer location to see the next 7 days of passes ≥ 10°. The values pass through the URL so the page stays shareable.

No JS? Fill the form by hand. The geolocation button needs JavaScript.